Regional Weather Roundup
Issued by NWS Nashville, TN

Home | Current Version | Previous Version | Text Only | Print | Product List | Glossary On
Versions: 1 2 3 4 5 6 7 8 9 10 11 12 13 14 15 16 17 18 19 20 21 22 23 24 25 26 27 28 29 30 31 32 33 34 35 36 37 38 39 40 41 42 43 44 45 46 47 48 49 50
000
ASUS44 KOHX 042015
RWROHX
MIDDLE TENNESSEE HOURLY WEATHER ROUNDUP
NATIONAL WEATHER SERVICE NASHVILLE TN
200 PM CST WED MAR 04 2015

NOTE: "FAIR" INDICATES FEW OR NO CLOUDS BELOW 12,000 FEET WITH
NO SIGNIFICANT WEATHER AND/OR OBSTRUCTIONS TO VISIBILITY.

* THESE REPORTS ARE NOT UNDER NWS QUALITY CONTROL AND MAY NOT
  REPORT WEATHER SUCH AS PRECIPITATION AND FOG.


TNZ005>011-023>034-057-059-062>066-078-080-042100
...NORTHERN MIDDLE TENNESSEE...

CITY           SKY/WX    TMP DP  RH WIND       PRES   REMARKS
CLARKSVILLE    RAIN      35  33  92 N16       29.98S FOG     WCI  25
CROSSVILLE     RAIN      52  50  93 NE8       29.85F FOG
GALLATIN       CLOUDY    43  43 100 N14       29.91F
DICKSON        CLOUDY    36  36 100 N16       29.95R WCI  26
LIVINGSTON     CLOUDY    51  50  97 N9        29.87F
NASHVILLE      RAIN      43  41  93 N16       29.91F FOG
PORTLAND       CLOUDY    37  37 100 CALM      29.92F
SMYRNA         HVY RAIN  46  44  93 N10       29.92S FOG
SPARTA         CLOUDY    52  52 100 N7        29.83F VSB 1
$$
TNZ056-058-060-061-075>077-079-093>097-042100
...SOUTHERN MIDDLE TENNESSEE...

CITY           SKY/WX    TMP DP  RH WIND       PRES   REMARKS
COLUMBIA       CLOUDY   N/A N/A N/A N8        29.88R VSB 1/2
LEWISBURG      CLOUDY    51  49  93 N10       29.86F
MCMINNVILLE    CLOUDY    54  54 100 N8        29.85F
MURFREESBORO   CLOUDY    46  46 100 N9        29.87F
SHELBYVILLE    CLOUDY    50  50 100 N13       29.86F
TULLAHOMA      CLOUDY    54  54 100 N8        29.84F VSB 1
WINCHESTER     PTSUNNY   72  61  68 S14       29.81F
$$


...KEY TO REMARKS...
VSB - VISIBILITY IN MILES
WCI - WIND CHILL INDEX
HX  - HEAT INDEX




USA.gov is the U.S. government's official web portal to all federal, state and local government web resources and services.